Location: Ferchesar
(52.6477°N, 12.4298°E)
Time: 17:29:10
(UTC+01:00)

Vanguard 3 - Pass Details

Date: 16 December 2021
Orbit: 508 x 3260 km, 33.3° (Epoch: 22 January)

Event Time Altitude Azimuth Distance (km) Brightness Sun altitude
Rises 21:58:53 0° 178° (S) 5,073 - -52.0°
Reaches altitude 10° 22:04:45 10° 154° (SSE) 4,692 - -52.7°
Maximum altitude 22:10:09 13° 131° (SE) 4,895 - -53.3°
Drops below altitude 10° 22:16:24 10° 108° (ESE) 5,626 - -54.0°
Sets 22:25:09 0° 88° (E) 7,070 - -55.0°
